This is the latest recevied weather packets stored in our database for station/object K9YK-13. If no packets are shown the sender has not sent any weather packets the latest 10 day(s).
| Time | Temp. | Humidity | Pressure | Rain* | Wind** | Luminosity | Snow |
|---|---|---|---|---|---|---|---|
| 1777569072 | 17.78° C | 54% | 0 hPa | 0 mm | - | - | - |
| 1777568772 | 17.22° C | 51% | 0 hPa | 0 mm | - | - | - |
| 1777568472 | 16.67° C | 49% | 0 hPa | 0 mm | - | - | - |
| 1777568172 | 17.22° C | 49% | 0 hPa | 0 mm | - | - | - |
| 1777567872 | 17.22° C | 55% | 0 hPa | 0 mm | - | - | - |
| 1777567572 | 16.67° C | 50% | 0 hPa | 0 mm | - | - | - |
| 1777567272 | 16.67° C | 50% | 0 hPa | 0 mm | - | - | - |
| 1777566972 | 16.67° C | 52% | 0 hPa | 0 mm | - | - | - |
| 1777566672 | 16.67° C | 48% | 0 hPa | 0 mm | - | - | - |
| 1777566373 | 16.67° C | 57% | 0 hPa | 0 mm | - | - | - |
| 1777566072 | 16.67° C | 57% | 0 hPa | 0 mm | - | - | - |
| 1777565772 | 15.56° C | 55% | 0 hPa | 0 mm | - | - | - |
| 1777565472 | 15.56° C | 62% | 0 hPa | 0 mm | - | - | - |
| 1777565172 | 13.89° C | 64% | 0 hPa | 0 mm | - | - | - |
| 1777564872 | 14.44° C | 64% | 0 hPa | 0 mm | - | - | - |
| 1777564572 | 15.56° C | 56% | 0 hPa | 0 mm | - | - | - |
| 1777564272 | 15.56° C | 55% | 0 hPa | 0 mm | - | - | - |
| 1777563972 | 15.56° C | 56% | 0 hPa | 0 mm | - | - | - |
| 1777563672 | 15.56° C | 55% | 0 hPa | 0 mm | - | - | - |
| 1777563372 | 15° C | 55% | 0 hPa | 0 mm | - | - | - |
| 1777563072 | 15.56° C | 55% | 0 hPa | 0 mm | - | - | - |
| 1777562772 | 15° C | 60% | 0 hPa | 0 mm | - | - | - |
| 1777562472 | 14.44° C | 58% | 0 hPa | 0 mm | - | - | - |
| 1777562172 | 13.89° C | 59% | 0 hPa | 0 mm | - | - | - |
| 1777561872 | 13.33° C | 63% | 0 hPa | 0 mm | - | - | - |
* Rain latest hour (hover to see other rain measurements)
** Current wind speed in m/s (hover to see current wind gust speed)